Hourly Data Report for October 16, 2015

All times are specified in Local Standard Time (LST). Add 1 hour to adjust for Daylight Saving Time where and when it is observed.

POND INLET A
NUNAVUT

72°41'22.000" N
77°58'08.000" W
61.60 m
2403206
71095
YIO

Download Data

Hourly Data (October 2015)
Hourly Data Report for October 16, 2015
Temp Definition
°C
Dew Point Temp Definition
°C
Rel Hum Definition
%
Wind Dir Definition
10's deg

Wind Spd Definition
km/h
Visibility Definition
km
Stn Press Definition
kPa
Hmdx Definition


Wind Chill Definition


Weather Definition


TIME
00:00 Legend Double Dagger -7.2 -11.6 71 26 24 16.1 98.60   -15 LegendNANA
01:00 Legend Double Dagger -7.4 -12.1 70 26 24 16.1 98.64   -15 LegendNANA
02:00 Legend Double Dagger -7.3 -12.4 67 25 21 16.1 98.70   -15 LegendNANA
03:00 Legend Double Dagger -7.4 -12.2 69 25 21 16.1 98.75   -15 LegendNANA
04:00 Legend Double Dagger -7.5 -11.9 71 26 22 16.1 98.81   -15 Snow
05:00 Legend Double Dagger -7.7 -11.9 72 27 22 16.1 98.88   -15 LegendNANA
06:00 Legend Double Dagger -8.0 -11.4 77 26 28 16.1 98.93   -17 Snow
07:00 Legend Double Dagger -8.3 -11.9 75 26 24 16.1 99.01   -16 Snow
08:00 Legend Double Dagger -8.2 -12.5 72 27 21 16.1 99.03   -16 Snow
09:00 Legend Double Dagger -8.2 -13.3 67 27 15 16.1 99.08   -15 LegendNANA
10:00 Legend Double Dagger -8.3 -12.5 72 27 24 16.1 99.12   -16 LegendNANA
11:00 Legend Double Dagger -8.2 -11.5 77 27 28 16.1 99.17   -17 Snow
12:00 Legend Double Dagger -9.3 -12.1 80 22 22 9.7 99.22   -17 Snow
13:00 Legend Double Dagger -9.4 -12.2 80 20 24 16.1 99.27   -18 Snow
14:00 Legend Double Dagger -9.3 -12.1 80 20 21 8.1 99.31   -17 Snow
15:00 Legend Double Dagger -9.4 -11.6 84 19 24 2.8 99.38   -18 Snow
16:00 Legend Double Dagger -9.2 -12.2 79 19 21 16.1 99.42   -17 Snow
17:00 Legend Double Dagger -8.9 -11.9 79 19 13 12.9 99.47   -15 Snow
18:00 Legend Double Dagger -8.7 -11.6 80 19 13 16.1 99.52   -15 LegendNANA
19:00 Legend Double Dagger -9.2 -11.1 86 17 17 16.1 99.53   -16 Snow
20:00 Legend Double Dagger -9.1 -11.5 83 15 15 16.1 99.56   -16 Snow
21:00 Legend Double Dagger -8.9 -11.1 84 15 15 16.1 99.56   -15 Snow
22:00 Legend Double Dagger -8.9 -10.5 88 15 17 16.1 99.57   -16 Snow
23:00 Legend Double Dagger -8.6 -10.7 85 14 15 16.1 99.59   -15 Snow

Notes on Data Quality.

Legend

  • E = Estimated
  • M = Missing
  • NA = Not Available
  • ‡ = Partner data that is not subject to review by the National Climate Archives
Date modified: